Beaumont, TX

7:04 PM CST on February 07, 2016 (GMT -0600)
Beaumont Municipal

Weather History for KBMT - May, 2014

Change the Weather History Date:

Thursday, May 29, 2014

  Actual Average (KBPT) Record (KBPT)
Temperature  
Mean Temperature 74 °F 79 °F  
Max Temperature 86 °F 88 °F 99 °F (1905)
Min Temperature 64 °F 70 °F 58 °F (1961)
Degree Days  
Heating Degree Days 0 0  
Month to date heating degree days 0  
Since 1 July heating degree days 1400  
Cooling Degree Days 10 14  
Month to date cooling degree days 312  
Year to date cooling degree days 539  
Growing Degree Days 24 (Base 50)    
Moisture  
Dew Point 68 °F    
Average Humidity 84    
Maximum Humidity 100    
Minimum Humidity 52    
Precipitation  
Precipitation 0.00 in 0.18 in 6.12 in (1941)
Month to date precipitation 4.88  
Year to date precipitation 20.46  
Snow  
Snow 0.00 in 0.00 in 0.00 in ()
Month to date snowfall 0.0  
Since 1 July snowfall T  
Snow Depth -    
Sea Level Pressure  
Sea Level Pressure 29.83 in    
Wind  
Wind Speed 3 mph (North)    
Max Wind Speed 12 mph    
Max Gust Speed -    
Visibility 8 miles    
Events Fog    
T = Trace of Precipitation, MM = Missing Value Source: NWS Daily Summary

Daily Weather History Graph

Daily Weather History Graph

Search for Another Location

Airport or City:

Trip Planner

Search our weather history database for the weather conditions in past years. The results will help you decide how hot, cold, wet, or windy it might be!

Date:

Astronomy

May. 29, 2014 Rise Set
Actual Time 6:16 AM CDT 8:11 PM CDT
Civil Twilight 5:49 AM CDT 8:38 PM CDT
Nautical Twilight 5:17 AM CDT 9:11 PM CDT
Astronomical Twilight 4:42 AM CDT 9:46 PM CDT
Moon 7:07 AM CDT (5/29) 9:06 PM CDT (5/29)
Length of Visible Light 14h 49m
Length of Day
13h 55m
New Moon, 1% of the Moon is Illuminated
May 29
New Moon
Jun 5
First Quarter
Jun 12
Full
Jun 19
Last Quarter
Jun 27
New

Hourly Weather History & Observations

Time (CDT) Temp. Heat Index Dew Point Humidity Pressure Visibility Wind Dir Wind Speed Gust Speed Precip Events Conditions
12:15 AM 68.2 °F - 68.2 °F 100% 29.83 in 10.0 mi Calm Calm - N/A   Clear
12:35 AM 67.1 °F - 66.9 °F 99% 29.84 in 10.0 mi Calm Calm - N/A   Clear
12:55 AM 67.1 °F - 67.1 °F 100% 29.83 in 10.0 mi Calm Calm - N/A   Clear
1:15 AM 67.5 °F - 67.3 °F 99% 29.83 in 10.0 mi NNW 3.5 mph - N/A   Clear
1:35 AM 67.8 °F - 67.6 °F 99% 29.83 in 10.0 mi Calm Calm - N/A   Clear
1:55 AM 67.6 °F - 67.5 °F 99% 29.83 in 10.0 mi Calm Calm - N/A   Clear
2:15 AM 67.5 °F - 67.1 °F 99% 29.83 in 10.0 mi NNW 3.5 mph - N/A   Clear
2:35 AM 66.4 °F - 66.2 °F 99% 29.83 in 5.0 mi NNW 3.5 mph - N/A   Clear
2:55 AM 66.6 °F - 66.4 °F 99% 29.83 in 10.0 mi NNW 3.5 mph - N/A   Clear
3:15 AM 66.6 °F - 66.4 °F 99% 29.83 in 10.0 mi NNW 3.5 mph - N/A   Clear
3:35 AM 66.4 °F - 66.2 °F 99% 29.83 in 7.0 mi Calm Calm - N/A   Clear
4:15 AM 65.7 °F - 65.7 °F 100% 29.82 in 4.0 mi Calm Calm - N/A   Clear
4:35 AM 65.8 °F - 65.8 °F 100% 29.83 in 4.0 mi Calm Calm - N/A   Clear
4:55 AM 65.7 °F - 65.7 °F 100% 29.83 in 2.5 mi Calm Calm - N/A   Clear
5:15 AM 64.8 °F - 64.8 °F 100% 29.83 in 0.8 mi Calm Calm - N/A   Mist
5:35 AM 65.3 °F - 65.3 °F 100% 29.83 in 5.0 mi NNW 3.5 mph - N/A   Clear
5:55 AM 64.9 °F - 64.9 °F 100% 29.83 in 5.0 mi Calm Calm - N/A   Scattered Clouds
6:15 AM 65.1 °F - 65.1 °F 100% 29.83 in 5.0 mi Calm Calm - N/A   Mostly Cloudy
6:35 AM 65.8 °F - 65.8 °F 100% 29.83 in 0.5 mi Calm Calm - N/A Fog Fog
6:55 AM 65.8 °F - 65.8 °F 100% 29.83 in 0.2 mi North 3.5 mph - N/A Fog Fog
7:15 AM 66.2 °F - 66.2 °F 100% 29.83 in 0.2 mi NNW 4.6 mph - N/A Fog Fog
7:35 AM 66.2 °F - 66.2 °F 100% 29.84 in 0.2 mi NNW 3.5 mph - N/A Fog Fog
7:55 AM 66.4 °F - 66.4 °F 100% 29.84 in 0.2 mi Calm Calm - N/A Fog Fog
8:15 AM 67.3 °F - 67.3 °F 100% 29.84 in 0.2 mi North 4.6 mph - N/A Fog Fog
8:35 AM 67.3 °F - 67.3 °F 100% 29.85 in 0.2 mi NNW 4.6 mph - N/A Fog Fog
8:55 AM 68.2 °F - 68.2 °F 100% 29.85 in 0.5 mi North 3.5 mph - N/A Fog Fog
9:15 AM 68.5 °F - 68.5 °F 100% 29.86 in 1.8 mi North 4.6 mph - N/A   Overcast
9:55 AM 71.8 °F - 70.0 °F 94% 29.87 in 10.0 mi North 3.5 mph - N/A   Overcast
10:15 AM 72.0 °F - 69.8 °F 93% 29.87 in 10.0 mi NNW 4.6 mph - N/A   Overcast
10:35 AM 72.7 °F - 69.6 °F 90% 29.87 in 10.0 mi Calm Calm - N/A   Overcast
10:55 AM 73.9 °F - 69.3 °F 85% 29.87 in 10.0 mi North 5.8 mph - N/A   Overcast
11:15 AM 77.0 °F - 70.0 °F 79% 29.87 in 10.0 mi NNE 4.6 mph - N/A   Unknown
11:35 AM 77.5 °F - 69.8 °F 77% 29.87 in 10.0 mi NNE 3.5 mph - N/A   Unknown
11:55 AM 78.6 °F - 70.2 °F 75% 29.86 in 10.0 mi NE 4.6 mph - N/A   Scattered Clouds
12:15 PM 80.1 °F 83.0 °F 69.4 °F 70% 29.86 in 10.0 mi NNE 6.9 mph - N/A   Mostly Cloudy
12:35 PM 79.9 °F - 68.5 °F 68% 29.86 in 10.0 mi North 9.2 mph - N/A   Mostly Cloudy
1:15 PM 81.9 °F 84.6 °F 67.5 °F 62% 29.85 in 10.0 mi North 6.9 mph - N/A   Scattered Clouds
1:35 PM 81.5 °F 83.9 °F 66.9 °F 61% 29.85 in 10.0 mi NNW 6.9 mph - N/A   Scattered Clouds
1:55 PM 82.0 °F 84.7 °F 67.3 °F 61% 29.84 in 10.0 mi NNW 6.9 mph - N/A   Clear
2:15 PM 83.3 °F 86.2 °F 67.6 °F 59% 29.84 in 10.0 mi NNW 3.5 mph - N/A   Clear
2:55 PM 83.7 °F 86.0 °F 66.6 °F 56% 29.83 in 10.0 mi NW 10.4 mph - N/A   Mostly Cloudy
3:15 PM 82.8 °F 85.3 °F 66.9 °F 59% 29.82 in 10.0 mi North 5.8 mph - N/A   Mostly Cloudy
3:35 PM 85.3 °F 87.9 °F 66.9 °F 54% 29.82 in 10.0 mi WNW 6.9 mph - N/A   Scattered Clouds
3:55 PM 85.6 °F 88.2 °F 66.7 °F 53% 29.81 in 10.0 mi NW 6.9 mph - N/A   Scattered Clouds
4:15 PM 84.9 °F 86.8 °F 65.7 °F 52% 29.81 in 10.0 mi NW 6.9 mph - N/A   Clear
4:35 PM 85.5 °F 87.9 °F 66.6 °F 53% 29.80 in 10.0 mi North 9.2 mph - N/A   Clear
4:55 PM 84.7 °F 87.9 °F 67.8 °F 57% 29.80 in 10.0 mi NNE 5.8 mph - N/A   Scattered Clouds
5:15 PM 84.7 °F 87.9 °F 68.0 °F 57% 29.79 in 10.0 mi North 11.5 mph - N/A   Scattered Clouds
5:35 PM 82.2 °F 85.3 °F 68.4 °F 63% 29.79 in 10.0 mi North 5.8 mph - N/A   Mostly Cloudy
5:55 PM 84.0 °F 86.8 °F 67.3 °F 57% 29.79 in 10.0 mi North 6.9 mph - N/A   Scattered Clouds
6:15 PM 83.7 °F 87.0 °F 68.4 °F 60% 29.79 in 10.0 mi North 9.2 mph - N/A   Scattered Clouds
6:35 PM 82.9 °F 86.0 °F 68.2 °F 61% 29.79 in 10.0 mi North 9.2 mph - N/A   Mostly Cloudy
6:55 PM 82.6 °F 85.3 °F 67.5 °F 60% 29.79 in 10.0 mi North 5.8 mph - N/A   Mostly Cloudy
7:15 PM 80.6 °F 83.4 °F 68.4 °F 66% 29.80 in 10.0 mi NNE 5.8 mph - N/A   Mostly Cloudy
7:35 PM 80.6 °F 83.4 °F 68.2 °F 66% 29.80 in 10.0 mi North 5.8 mph - N/A   Clear
7:55 PM 79.0 °F - 68.4 °F 70% 29.80 in 10.0 mi North 4.6 mph - N/A   Clear
8:15 PM 75.7 °F - 69.6 °F 81% 29.80 in 10.0 mi NNW 4.6 mph - N/A   Clear
8:55 PM 73.4 °F - 69.1 °F 86% 29.81 in 10.0 mi Calm Calm - N/A   Clear
9:15 PM 73.0 °F - 68.9 °F 87% 29.82 in 10.0 mi Calm Calm - N/A   Clear
9:35 PM 71.8 °F - 68.9 °F 91% 29.82 in 10.0 mi Calm Calm - N/A   Clear
9:55 PM 70.3 °F - 68.5 °F 94% 29.83 in 10.0 mi Calm Calm - N/A   Clear
10:15 PM 72.5 °F - 68.7 °F 88% 29.84 in 10.0 mi Calm Calm - N/A   Clear
10:35 PM 69.6 °F - 68.5 °F 96% 29.84 in 10.0 mi Calm Calm - N/A   Clear
11:15 PM 69.4 °F - 68.5 °F 97% 29.84 in 10.0 mi Calm Calm - N/A   Clear
11:35 PM 68.5 °F - 67.6 °F 97% 29.84 in 10.0 mi Calm Calm - N/A   Clear
11:55 PM 69.8 °F - 68.2 °F 95% 29.84 in 10.0 mi Calm Calm - N/A   Clear